Waarnemingen

Advertentie
Mijn weer
D15-FA-1, Nederland (6201): temperatuur & dauwpunt: 18.02.2017 09:00:00 - 24.02.2017 09:00:00 (CET)D15-FA-1, Nederland (6201): windsnelheid & windstoten: 18.02.2017 09:00:00 - 24.02.2017 09:00:00 (CET)D15-FA-1, Nederland (6201): windrichting: 18.02.2017 09:00:00 - 24.02.2017 09:00:00 (CET)D15-FA-1, Nederland (6201): luchtdruk: 18.02.2017 09:00:00 - 24.02.2017 09:00:00 (CET)D15-FA-1, Nederland (6201): zicht: 18.02.2017 09:00:00 - 24.02.2017 09:00:00 (CET)
Datum & Tijd tt [°C] td [°C] ff [km/u] ff [kn] fx [km/u] fx [kn] dd ppp [hPa] vv [km]
24.02.2017 09:00:00 5,9 -0,7 35 19 36 19 NW 1009,6 10
24.02.2017 08:00:00 5,5 -0,1 31 17 40 21 NW 1008,6 10
24.02.2017 07:00:00 5,7 0,3 35 19 36 19 NW 1007,4 10
24.02.2017 06:00:00 5,4 0,0 39 21 43 23 NW 1006,3 10
24.02.2017 05:00:00 5,4 -0,7 44 24 50 27 NW 1004,9 10
24.02.2017 04:00:00 5,6 -0,7 50 27 50 27 NW 1003,7 10
24.02.2017 03:00:00 5,5 -0,2 48 26 54 29 NNW 1002,5 10
24.02.2017 02:00:00 4,7 -0,5 67 36 72 39 NNW 1001,0 9
24.02.2017 01:00:00 5,3 -0,6 67 36 68 37 NNW 999,2 10
24.02.2017 00:00:00 5,8 -1,6 68 37 72 39 NNW 997,2 10
23.02.2017 23:00:00 5,8 -1,1 65 35 72 39 NNW 995,2 10
23.02.2017 22:00:00 5,2 0,6 70 38 76 41 N 993,5 10
23.02.2017 21:00:00 5,1 0,8 80 43 97 53 N 990,7 10
23.02.2017 20:00:00 4,7 1,9 98 53 108 58 N 987,0 9
23.02.2017 19:00:00 4,7 2,4 93 50 94 51 N 981,7 4,4
23.02.2017 18:00:00 7,1 4,9 52 28 54 29 W 978,3 10
23.02.2017 17:00:00 7,0 4,8 41 22 47 25 WNW 977,0 10
23.02.2017 16:00:00 6,6 4,3 41 22 43 23 W 975,9 10
23.02.2017 15:00:00 6,6 4,1 42 23 54 29 WZW 976,1 10
23.02.2017 14:00:00 7,6 4,1 41 22 47 25 ZW 976,8 8
23.02.2017 13:00:00 8,0 4,6 48 26 50 27 ZW 977,9 10
23.02.2017 12:00:00 7,7 6,8 48 26 76 41 ZW 979,2 2,7
23.02.2017 11:00:00 7,2 7,1 50 27 54 29 Z 981,3 6
23.02.2017 10:00:00 7,6 7,2 44 24 50 27 Z 984,0 10
23.02.2017 09:00:00 5,7 5,5 50 27 54 29 ZO 986,9 4,4
23.02.2017 08:00:00 4,3 3,7 44 24 47 25 ZO 989,2 2,0
23.02.2017 07:00:00 4,6 2,6 34 18 32 18 ZZO 992,5 7
23.02.2017 06:00:00 4,9 2,6 15 8 32 18 Z 994,7 8
23.02.2017 05:00:00 6,1 2,1 15 8 25 14 - 996,3 7
23.02.2017 04:00:00 6,9 4,9 21 11 25 14 WZW 997,4 10
23.02.2017 03:00:00 6,9 4,7 26 14 32 18 WZW 998,3 10
23.02.2017 02:00:00 7,0 4,0 35 19 40 21 W 999,4 10
23.02.2017 01:00:00 7,1 4,0 41 22 50 27 W 999,9 10
23.02.2017 00:00:00 7,3 3,8 48 26 54 29 W 1000,2 10
22.02.2017 23:00:00 7,4 3,3 52 28 58 31 W 1000,4 10
22.02.2017 22:00:00 7,5 3,7 52 28 61 33 W 1000,4 10
22.02.2017 21:00:00 7,6 3,4 55 30 61 33 W 1000,2 10
22.02.2017 20:00:00 7,7 3,5 54 29 65 35 W 999,9 10
22.02.2017 19:00:00 7,6 3,8 48 26 58 31 W 999,8 10
22.02.2017 18:00:00 7,6 3,6 48 26 54 29 W 999,6 10
22.02.2017 17:00:00 7,5 3,8 42 23 54 29 W 999,6 10
22.02.2017 16:00:00 7,6 3,6 46 25 47 25 W 999,4 10
22.02.2017 15:00:00 7,5 3,9 44 24 54 29 W 999,4 -
22.02.2017 14:00:00 7,4 4,1 46 25 50 27 W 999,5 10
22.02.2017 13:00:00 7,4 3,9 46 25 50 27 W 999,6 10
22.02.2017 12:00:00 7,5 2,9 52 28 61 33 W 1000,0 10
22.02.2017 11:00:00 7,5 2,4 55 30 61 33 W 999,9 10
22.02.2017 10:00:00 7,5 1,6 59 32 61 33 W 999,8 10
22.02.2017 09:00:00 7,5 3,3 55 30 61 33 W 999,9 10
22.02.2017 08:00:00 7,9 4,1 54 29 58 31 W 999,3 10
22.02.2017 07:00:00 8,2 4,3 54 29 58 31 W 998,6 10
22.02.2017 06:00:00 8,3 4,2 55 30 86 47 W 998,1 10
22.02.2017 05:00:00 8,9 7,3 54 29 58 31 WZW 997,1 9
22.02.2017 04:00:00 9,1 7,5 55 30 58 31 WZW 997,3 10
22.02.2017 03:00:00 9,2 7,8 61 33 61 33 WZW 997,5 9
22.02.2017 02:00:00 9,3 7,5 61 33 61 33 WZW 997,8 10
22.02.2017 01:00:00 9,2 7,3 55 30 54 29 WZW 998,5 10
22.02.2017 00:00:00 9,1 7,6 57 31 58 31 WZW 999,3 10
21.02.2017 23:00:00 9,0 7,9 50 27 50 27 ZW 999,9 10
21.02.2017 22:00:00 8,9 8,1 48 26 68 37 ZW 1000,6 8
21.02.2017 21:00:00 8,4 7,9 65 35 68 37 ZW 1002,2 4,3
21.02.2017 20:00:00 7,7 5,9 52 28 58 31 ZZW 1004,1 10
21.02.2017 19:00:00 7,8 5,3 52 28 54 29 ZW 1005,9 10
21.02.2017 18:00:00 7,1 5,1 46 25 50 27 ZW 1007,1 10
21.02.2017 17:00:00 6,8 5,0 31 17 32 18 ZW 1008,8 10
21.02.2017 16:00:00 6,7 5,1 29 16 32 18 WZW 1010,1 10
21.02.2017 15:00:00 7,4 4,8 28 15 32 18 WZW 1011,2 10
21.02.2017 14:00:00 7,0 4,8 29 16 36 19 W 1011,7 10
21.02.2017 13:00:00 7,1 5,0 35 19 40 21 W 1012,3 10
21.02.2017 12:00:00 7,3 4,9 39 21 43 23 W 1012,8 10
21.02.2017 11:00:00 7,3 5,0 37 20 40 21 W 1012,5 10
21.02.2017 10:00:00 7,5 5,1 41 22 43 23 W 1012,3 10
21.02.2017 09:00:00 7,4 5,1 39 21 47 25 W 1012,2 10
21.02.2017 08:00:00 7,3 4,8 46 25 47 25 WNW 1011,5 10
21.02.2017 07:00:00 7,3 4,9 42 23 47 25 WNW 1010,8 10
21.02.2017 06:00:00 7,6 4,8 48 26 47 25 W 1010,6 10
21.02.2017 05:00:00 7,7 5,1 44 24 50 27 W 1010,4 10
21.02.2017 04:00:00 7,8 5,0 46 25 54 29 W 1010,3 10
21.02.2017 03:00:00 7,9 5,0 48 26 58 31 W 1010,3 10
21.02.2017 02:00:00 8,1 4,9 52 28 54 29 W 1010,4 10
21.02.2017 01:00:00 8,0 5,5 48 26 50 27 W 1010,8 10
21.02.2017 00:00:00 8,0 5,4 50 27 54 29 W 1010,5 10
20.02.2017 23:00:00 8,5 5,2 50 27 54 29 W 1010,3 10
20.02.2017 22:00:00 8,5 5,9 52 28 58 31 W 1010,5 10
20.02.2017 21:00:00 9,2 6,3 54 29 61 33 WNW 1009,8 10
20.02.2017 20:00:00 9,1 7,0 50 27 58 31 W 1009,6 10
20.02.2017 19:00:00 9,5 7,4 63 34 61 33 W 1008,9 10
20.02.2017 18:00:00 8,9 7,2 54 29 54 29 W 1008,1 10
20.02.2017 17:00:00 9,1 7,6 50 27 61 33 W 1007,5 10
20.02.2017 16:00:00 9,0 7,7 52 28 54 29 W 1007,6 10
20.02.2017 15:00:00 9,4 7,9 52 28 61 33 W 1007,5 10
20.02.2017 14:00:00 9,7 8,0 59 32 61 33 W 1007,5 10
20.02.2017 13:00:00 8,7 7,5 55 30 54 29 W 1008,2 10
20.02.2017 12:00:00 8,9 7,8 44 24 50 27 WZW 1008,9 10
20.02.2017 11:00:00 9,2 8,0 52 28 50 27 W 1009,0 10
20.02.2017 10:00:00 8,8 7,9 50 27 54 29 W 1009,4 10
20.02.2017 09:00:00 8,5 7,7 44 24 47 25 W 1009,8 10
20.02.2017 08:00:00 8,4 7,8 42 23 47 25 W 1010,3 10
20.02.2017 07:00:00 8,6 7,7 46 25 50 27 W 1010,2 10
20.02.2017 06:00:00 8,5 7,8 42 23 43 23 W 1010,4 10
20.02.2017 05:00:00 8,3 7,6 42 23 50 27 W 1011,0 8
20.02.2017 04:00:00 8,3 7,4 48 26 47 25 W 1011,4 7
20.02.2017 03:00:00 8,0 6,9 41 22 43 23 WZW 1011,9 9
20.02.2017 02:00:00 8,0 6,9 39 21 40 21 WZW 1013,5 10
20.02.2017 01:00:00 7,7 6,5 37 20 36 19 WZW 1014,4 10
20.02.2017 00:00:00 7,7 6,3 34 18 32 18 WZW 1014,8 10
19.02.2017 23:00:00 7,6 6,1 34 18 32 18 WZW 1015,3 10
19.02.2017 22:00:00 7,7 6,2 34 18 32 18 WZW 1016,2 10
19.02.2017 21:00:00 7,8 6,2 31 17 32 18 WZW 1016,5 10
19.02.2017 20:00:00 7,4 5,9 26 14 32 18 WZW 1016,9 10
19.02.2017 19:00:00 7,6 5,9 31 17 32 18 W 1017,2 10
19.02.2017 18:00:00 7,3 6,0 31 17 29 16 W 1017,2 10
19.02.2017 17:00:00 7,3 6,4 29 16 32 18 W 1017,2 10
19.02.2017 16:00:00 7,1 5,8 28 15 32 18 W 1017,2 10
19.02.2017 15:00:00 7,5 6,1 31 17 32 18 W 1017,6 10
19.02.2017 14:00:00 7,2 6,2 34 18 36 19 W 1017,3 10
19.02.2017 13:00:00 7,2 5,8 37 20 40 21 W 1017,4 10
19.02.2017 12:00:00 7,4 5,5 39 21 40 21 W 1017,3 10
19.02.2017 11:00:00 7,4 5,7 37 20 40 21 W 1017,2 10
19.02.2017 10:00:00 7,7 5,6 39 21 47 25 W 1017,1 10
19.02.2017 09:00:00 7,4 5,9 44 24 47 25 W 1016,7 10
19.02.2017 08:00:00 7,5 5,9 46 25 47 25 W 1015,9 10
19.02.2017 07:00:00 7,6 6,1 41 22 47 25 W 1015,3 8
19.02.2017 06:00:00 7,8 6,2 39 21 43 23 W 1015,4 8
19.02.2017 05:00:00 7,7 6,3 44 24 50 27 W 1015,6 7
19.02.2017 04:00:00 7,6 6,2 37 20 43 23 WZW 1015,7 6
19.02.2017 03:00:00 7,9 6,3 39 21 43 23 WZW 1015,8 6
19.02.2017 02:00:00 7,1 6,2 37 20 36 19 WZW 1017,0 6
19.02.2017 01:00:00 7,1 6,1 37 20 36 19 WZW 1017,4 7
19.02.2017 00:00:00 7,1 5,8 39 21 40 21 WZW 1017,4 7
18.02.2017 23:00:00 7,1 5,8 39 21 40 21 WZW 1018,4 8
18.02.2017 22:00:00 7,1 6,0 41 22 40 21 ZW 1019,3 6
18.02.2017 21:00:00 6,8 6,0 37 20 40 21 ZW 1019,0 5
18.02.2017 20:00:00 6,0 5,6 41 22 43 23 ZW 1019,9 5
18.02.2017 19:00:00 6,0 5,1 34 18 47 25 ZW 1019,9 5
18.02.2017 18:00:00 5,9 4,8 34 18 47 25 ZW 1020,3 6
18.02.2017 17:00:00 5,6 4,6 34 18 47 25 ZW 1020,5 6
18.02.2017 16:00:00 4,7 4,1 32 18 47 25 ZZW 1020,9 4,9
18.02.2017 15:00:00 5,1 4,6 34 18 47 25 ZW 1021,4 3,8
18.02.2017 14:00:00 5,2 4,8 34 18 50 27 ZW 1022,0 3,4
18.02.2017 13:00:00 6,5 5,7 44 24 47 25 ZW 1022,9 8
18.02.2017 12:00:00 6,4 6,3 37 20 40 21 ZZW 1023,2 7
18.02.2017 11:00:00 5,4 5,4 31 17 40 21 ZZW 1023,6 0,3
18.02.2017 10:00:00 5,1 5,1 34 18 36 19 Z 1023,7 0,2
18.02.2017 09:00:00 4,9 4,9 31 17 32 18 Z 1023,8 0,3

tt = temperatuur
td = dauwpunt
ff = windsnelheid
fx = windstoten
dd = windrichting
ppp = luchtdruk
vv = zicht

Weerstations in de omgeving